Theta_e
358 358 358 358 358 357 358 358 357 358 358 357 356 356 357 357 357 357 358 360 360 362 364 363 362 362 362 363 363 360 362 362 359 358 360 361 359 358 357 356 356 357
357 358 358 358 358 359 359 358 357 358 358 359 357 356 358 358 357 357 359 361 360 361 364 364 362 362 361 362 363 361 362 364 360 359 361 361 360 358 358 356 356 357
357 358 358 357 358 358 357 357 358 359 358 358 357 357 358 358 357 357 358 360 359 359 361 361 361 361 360 363 365 361 361 363 361 359 362 362 360 359 358 356 355 356
358 357 356 355 355 356 356 356 358 359 358 357 357 355 356 356 357 357 358 359 359 360 360 360 361 361 360 363 364 360 360 363 362 361 364 363 361 360 358 357 356 356
357 357 356 355 353 354 355 355 356 357 356 357 357 355 356 358 359 358 358 358 359 360 361 361 361 360 361 363 363 360 360 360 360 361 363 363 361 358 356 358 358 358
356 356 356 356 355 354 355 355 355 355 355 356 356 356 356 358 358 358 358 358 358 357 358 359 359 359 359 362 363 361 359 358 358 360 361 361 360 358 356 358 360 360
354 355 355 355 355 355 355 355 355 356 355 355 355 355 356 357 358 358 358 359 357 357 356 357 359 359 359 361 363 362 361 358 358 360 361 361 361 360 359 359 361 361
352 353 354 354 354 354 354 355 356 356 356 355 354 355 356 357 357 357 358 358 357 357 357 358 361 361 359 360 361 363 363 359 357 359 359 360 361 361 360 359 360 360
351 352 353 353 352 352 353 353 354 355 355 355 355 355 355 356 357 357 358 358 356 358 358 359 362 362 359 359 361 363 364 361 358 359 360 360 360 359 359 358 357 358
351 351 351 352 351 351 351 351 352 353 355 355 355 355 355 355 356 356 358 359 357 359 360 360 361 361 358 358 360 362 362 360 359 360 361 361 360 358 358 358 356 356
351 351 350 351 351 351 350 351 351 351 353 354 354 354 353 354 356 356 358 360 358 358 360 360 360 360 359 357 357 358 358 358 357 358 359 359 358 357 357 357 356 355
353 352 351 350 351 351 350 350 350 351 351 351 352 354 353 353 355 355 356 359 359 358 357 359 359 359 359 358 358 357 358 358 357 357 358 358 357 357 356 356 355 353
356 353 352 350 350 351 350 350 350 350 350 350 351 352 353 353 354 354 355 356 358 357 355 356 359 358 358 359 358 357 358 359 358 357 357 357 357 355 354 354 353 353
358 355 353 351 350 350 350 351 351 351 350 350 350 351 353 353 352 353 355 354 355 356 354 354 356 357 357 358 359 358 358 359 359 358 357 357 356 355 354 352 352 351
359 357 356 354 353 354 354 353 352 352 352 351 351 351 352 353 353 352 353 354 354 354 354 353 353 354 355 356 357 358 358 357 357 356 355 355 355 354 353 352 351 351
360 361 360 358 358 358 358 357 355 353 353 353 352 353 352 353 354 353 352 352 353 354 353 352 351 350 351 353 354 356 357 356 355 353 353 354 355 354 354 352 351 350
359 361 361 359 361 363 362 361 359 357 356 354 354 354 355 355 356 355 354 352 352 352 353 353 351 348 348 349 351 354 355 355 353 352 353 355 354 354 354 352 350 349
357 359 359 357 359 363 365 364 363 362 360 357 356 356 356 357 356 356 355 354 353 352 352 351 350 348 346 347 349 351 352 352 351 350 350 351 351 351 352 351 350 348
356 356 357 357 357 359 362 363 363 364 362 359 358 357 357 357 357 356 356 355 353 352 350 348 347 346 345 346 348 350 351 350 349 348 348 348 349 349 349 349 351 350
356 355 355 355 356 355 356 357 358 360 359 359 359 358 357 358 357 356 355 354 353 352 349 348 348 348 348 348 349 350 350 349 349 348 348 347 348 349 349 349 350 350
354 355 354 354 354 353 352 353 354 356 356 358 359 357 356 357 356 356 355 353 353 352 349 349 351 351 351 349 350 350 349 349 350 350 349 347 348 350 350 350 350 350
348 350 350 351 351 351 350 351 353 353 354 354 355 355 356 355 353 353 355 355 354 352 350 350 351 352 352 351 351 352 351 351 353 353 352 351 349 349 349 351 353 354
343 344 344 345 346 347 348 349 350 350 351 351 352 353 354 353 350 351 353 354 353 351 350 351 352 352 353 353 353 353 353 354 355 355 354 352 350 350 352 354 355 355
338 338 339 339 340 342 344 344 345 346 347 348 349 350 350 349 349 351 354 354 352 352 352 352 351 351 352 354 354 354 353 353 355 356 354 351 351 351 352 354 354 355
334 335 336 336 336 338 340 341 342 343 344 345 345 346 346 347 348 349 351 351 350 351 352 351 348 347 349 351 353 353 352 352 354 356 354 352 352 350 350 351 352 353
334 335 335 335 336 336 336 336 336 336 339 342 342 342 344 345 345 345 347 347 347 347 348 347 345 344 345 348 350 351 352 353 354 354 353 352 352 351 351 352 352 351
Wind_Speed
13 12 12 11 10 8 8 8 8 7 7 7 7 7 7 7 7 6 7 7 7 6 5 5 5 4 4 3 3 4 3 3 3 2 3 5 5 5 5 4 4 4
14 13 12 11 11 9 8 8 7 7 7 7 6 7 7 8 8 8 7 7 7 7 6 6 5 5 5 4 3 4 3 4 5 4 3 4 5 5 5 4 4 3
14 14 13 12 12 11 11 10 8 8 8 8 8 7 8 9 9 9 9 8 8 8 7 6 6 6 6 4 4 5 4 4 6 5 2 3 5 4 4 5 4 3
15 14 14 13 12 12 11 11 10 9 9 9 9 9 8 7 9 10 9 9 8 8 8 8 7 7 6 6 6 5 5 5 6 5 3 4 5 4 4 5 4 3
15 14 13 13 12 12 11 12 12 11 10 9 8 9 8 6 8 9 9 10 9 9 9 8 8 8 7 7 7 6 6 7 7 6 5 5 4 5 5 4 4 4
15 14 13 13 12 12 12 12 12 11 11 10 9 9 9 8 8 9 9 10 10 10 10 9 9 9 8 8 8 7 8 8 6 6 6 6 5 6 5 3 4 5
15 15 14 14 13 13 12 12 12 12 11 11 10 10 10 10 10 9 9 10 10 10 10 10 9 9 8 8 8 8 9 8 7 6 7 6 6 6 6 5 5 6
15 15 15 15 15 14 14 13 12 12 12 11 11 11 11 11 10 10 10 10 11 10 10 9 9 9 9 9 9 9 9 9 8 7 8 7 7 7 7 7 6 7
15 15 15 16 16 15 15 15 14 13 13 13 12 12 12 12 11 11 11 11 11 10 10 10 9 10 11 10 9 9 9 9 8 7 8 8 8 8 7 8 8 8
15 15 15 15 16 16 16 16 15 15 14 14 14 13 13 13 12 12 11 12 12 10 10 11 10 11 11 11 10 10 9 9 8 8 8 8 8 8 8 8 8 9
14 14 15 16 16 16 16 16 16 16 15 15 14 14 13 13 13 12 12 12 12 12 11 11 11 11 11 12 11 11 10 10 10 9 9 9 9 9 8 9 9 9
15 15 15 15 15 15 15 16 16 16 16 16 15 14 14 13 13 13 13 13 13 13 12 12 12 12 12 12 12 11 10 10 10 10 10 10 10 10 10 10 10 10
16 16 15 15 15 15 14 15 15 15 16 16 15 15 15 14 14 14 13 14 14 13 13 13 12 12 12 12 12 12 11 11 11 10 10 10 10 10 11 11 11 11
16 16 16 16 15 14 14 13 14 14 15 15 15 15 15 15 15 15 14 14 14 14 14 14 13 14 14 13 13 12 12 11 11 11 11 10 11 11 11 11 12 12
14 14 16 16 15 14 13 13 13 14 14 15 15 15 15 15 15 15 15 14 14 14 14 14 15 15 14 14 14 13 13 12 11 11 11 11 11 11 12 12 12 13
11 11 12 15 16 15 14 14 14 14 14 14 14 15 15 15 15 15 15 15 15 14 15 15 16 15 15 15 15 13 12 11 11 11 12 11 11 11 12 12 13 14
11 10 11 13 14 13 13 14 14 14 14 14 14 15 14 14 14 15 16 16 16 15 15 15 15 15 16 17 17 16 13 11 11 12 12 12 11 12 13 14 14 15
13 12 13 12 10 8 9 10 11 12 13 14 14 14 15 14 15 16 16 16 16 16 16 16 15 15 16 16 17 18 17 14 13 13 13 13 13 13 14 14 14 15
13 13 13 12 10 9 7 7 8 10 12 14 15 15 14 15 16 16 16 17 17 16 16 16 16 15 16 16 16 17 17 15 14 14 14 14 13 13 13 13 13 13
11 12 13 12 11 11 10 10 9 10 10 12 13 14 15 15 16 16 16 17 17 17 17 15 11 10 12 14 16 16 15 15 14 14 15 15 14 14 14 14 14 13
8 10 10 11 12 12 12 12 11 11 11 11 11 12 13 14 15 15 15 15 15 15 14 10 5 7 12 13 13 13 14 14 14 14 15 16 15 15 15 15 14 14
5 7 5 5 9 11 11 10 9 9 11 13 14 14 13 13 14 13 11 10 11 10 8 4 3 6 8 11 11 11 12 12 13 15 17 17 17 16 16 14 12 11
4 4 3 3 4 7 8 7 7 7 8 10 12 13 13 12 12 12 10 8 10 11 7 6 8 8 6 8 10 11 12 11 12 14 15 15 16 14 11 8 8 8
8 8 7 5 4 4 4 4 4 6 7 9 9 8 8 10 10 12 14 13 12 12 7 3 7 10 10 12 13 13 14 13 10 11 13 13 14 13 9 6 7 8
9 10 8 6 4 3 2 1 2 3 3 5 7 5 5 8 8 8 11 10 8 10 9 4 4 6 8 10 12 13 14 11 7 9 13 14 12 12 10 7 5 7
9 8 8 6 4 4 3 3 2 2 2 2 3 3 3 7 6 4 4 3 0 3 6 4 2 4 3 4 6 7 8 6 5 6 9 9 6 6 8 6 3 4
Wind_Direction
185 183 184 187 189 196 198 197 202 202 202 207 198 190 196 201 196 192 189 185 188 194 194 198 204 207 205 206 216 233 256 278 269 232 249 269 266 268 270 264 275 289
189 187 187 188 190 193 197 197 200 200 200 211 206 183 186 195 191 193 191 187 195 196 194 202 203 205 212 208 209 225 245 263 260 247 242 263 269 269 268 262 263 271
193 192 192 194 193 193 197 198 199 205 204 206 206 197 197 196 190 194 194 194 201 199 196 203 203 206 213 210 214 229 233 244 259 261 255 260 265 270 269 263 253 240
196 198 199 202 201 197 199 199 199 207 210 207 205 204 205 196 186 190 195 197 202 202 199 202 205 207 209 208 218 231 229 237 252 255 255 257 258 263 262 264 268 263
198 200 202 206 206 202 201 203 205 207 207 208 208 203 201 196 189 192 195 198 203 206 203 202 205 207 205 206 216 225 229 239 243 236 241 251 248 252 247 238 255 265
198 201 204 207 207 206 206 206 209 210 207 206 207 205 201 200 203 205 201 200 203 207 208 206 205 210 208 205 212 219 227 240 234 215 227 242 239 245 248 230 233 250
198 200 203 207 207 208 210 210 209 210 211 210 207 208 207 204 208 212 209 208 208 208 211 208 201 208 211 204 208 216 222 231 224 212 226 237 237 242 250 250 243 247
199 199 202 207 209 209 211 212 210 209 211 214 211 209 210 211 211 213 212 212 213 210 211 207 196 204 214 210 211 214 219 225 219 219 230 234 235 238 241 247 248 249
199 200 202 206 209 211 212 212 210 209 210 214 216 211 211 213 214 215 212 211 216 213 208 208 201 205 217 219 217 215 222 233 225 218 228 232 235 238 239 244 246 249
202 204 206 208 210 212 214 214 212 210 209 211 217 217 213 213 214 217 211 206 214 215 209 212 213 213 219 221 222 221 224 235 233 228 232 236 240 242 242 248 250 253
205 207 210 212 213 213 214 216 214 212 211 210 214 219 219 216 213 215 212 205 211 215 213 217 220 222 226 226 227 228 227 231 233 233 234 236 240 244 245 249 253 255
206 210 215 214 216 217 217 217 217 215 214 212 212 217 222 222 216 215 214 210 213 217 217 220 223 225 229 231 233 232 230 233 234 233 234 236 239 241 243 245 248 251
206 209 214 215 215 217 219 220 219 217 218 218 215 215 220 224 222 217 216 215 217 219 221 221 223 226 227 230 235 236 233 234 236 236 237 239 240 242 245 247 248 250
211 210 212 216 216 216 219 223 221 218 220 222 220 217 218 224 226 221 217 218 218 219 222 222 221 224 226 226 230 234 236 235 235 237 239 241 246 247 248 250 253 254
216 214 210 211 212 213 215 220 222 220 220 222 222 221 221 223 227 226 222 221 220 219 222 225 225 225 225 226 227 231 237 241 243 244 245 244 248 252 253 254 257 258
221 223 215 206 203 205 208 213 219 220 219 220 221 223 224 224 227 229 226 225 224 221 222 226 230 231 229 225 223 225 232 240 247 249 248 246 248 255 258 258 259 261
219 220 221 210 199 197 201 207 215 220 221 222 222 223 224 225 226 228 229 230 229 226 226 230 232 236 236 228 221 220 224 235 247 248 247 248 248 252 257 259 261 263
222 220 225 222 209 199 199 203 212 219 220 221 222 222 221 222 224 226 228 232 234 233 234 237 238 240 240 233 225 225 229 236 249 252 250 250 249 249 252 256 260 263
222 225 227 225 223 221 212 204 213 223 224 222 222 222 222 222 224 227 228 231 237 241 242 245 250 248 245 238 228 225 229 233 242 252 256 257 256 255 256 259 261 265
217 224 229 227 229 232 228 225 225 227 232 231 228 228 227 226 226 226 228 231 236 240 244 250 256 244 232 228 222 221 227 234 241 249 254 257 259 261 261 262 264 267
209 214 225 228 230 234 238 237 232 230 235 239 240 238 236 234 233 231 232 234 236 242 249 251 230 191 193 201 208 217 227 234 242 249 253 256 258 259 260 263 267 268
185 190 201 219 222 227 233 233 231 231 236 241 244 245 246 245 245 245 246 242 238 248 271 274 199 179 186 196 204 217 229 239 249 252 253 253 252 254 258 263 266 265
97 119 94 93 164 199 212 217 220 225 234 243 247 251 253 252 254 258 262 252 233 235 257 265 237 230 234 231 227 229 235 244 255 260 263 267 274 280 282 273 259 254
75 85 88 93 120 165 188 197 208 217 230 238 241 253 254 242 242 249 247 243 236 230 227 236 239 243 252 251 246 244 244 246 259 274 275 276 288 302 309 306 277 249
73 83 94 98 87 85 106 132 163 182 208 221 225 241 239 221 226 243 237 235 242 231 213 201 234 249 262 262 255 253 254 250 258 272 262 254 266 277 270 271 271 235
77 76 80 80 71 68 66 48 63 130 138 166 205 217 201 200 206 208 195 184 113 193 184 178 227 243 269 288 271 262 255 236 229 253 251 246 261 268 257 263 270 223